sat.trackr.live / text

‹ back to catalog

QIANFAN-24

NORAD 61557 · 2024-185F

PAYLOAD ACTIVE UNKNOWN

§ Identity

Operator
Country
PRC
Launch date
2024-10-15
Launch site
TAISC
Launch vehicle
Mass (kg)
RCS (m²)

External: N2YO · Heavens-Above · Gunter

§ Orbital elements

Epoch: 2026-05-25T03:18:31.492800Z

Period
101.12 min
Inclination
88.9827°
Eccentricity
0.0011095
Mean motion
14.24042759 rev/d
Perigee alt
803.7 km
Apogee alt
819.7 km
Semi-major
7,189.8 km
B*
2.3282e-4
RAAN
58.0771°
Arg perigee
116.8911°
Mean anomaly
243.3417°
Rev number
9,327

§ Raw data

QIANFAN-241 61557U 24185F   26145.13786450  .00000549  00000+0  23282-3 0  99932 61557  88.9827  58.0771 0011095 116.8911 243.3417 14.24042759 93272

JSON: /api/v1/satellites/61557 · /tle

For live sub-satellite position, see the globe view (requires WebGL).

§ Visibility from observer

Set your observer location to see the next 7 days of passes ≥ 10°. The values pass through the URL so the page stays shareable.

No JS? Fill the form by hand. The geolocation button needs JavaScript.